Regional Weather Roundup
Issued by NWS

Home | Current Version | Previous Version | Text Only | Print | Product List | Glossary Off
Versions: 1 2 3 4 5 6 7 8 9 10 11 12 13 14 15 16 17 18 19 20 21 22 23 24 25 26 27 28 29 30 31 32 33 34 35 36 37 38 39 40 41 42 43 44 45 46 47 48 49 50

000
ASUS43 KMKX 011110
RWRWI

WISCONSIN REGIONAL WEATHER ROUNDUP
NATIONAL WEATHER SERVICE MILWAUKEE/SULLIVAN WI
500 AM CST SUN MAR 01 2015

NOTE: "FAIR" INDICATES FEW OR NO CLOUDS BELOW 12,000 FEET WITH NO
SIGNIFICANT WEATHER AND/OR OBSTRUCTIONS TO VISIBILITY.

WIZ001-002-006>008-014>016-023>028-011200-
NORTHWEST WISCONSIN

CITY           SKY/WX    TMP DP  RH WIND       PRES   REMARKS
SUPERIOR ARPT  CLOUDY    14   8  76 SW8       30.20S WCI   3
ASHLAND        LGT SNOW  14   8  77 S9        30.21S WCI   2
HAYWARD        LGT SNOW  12   7  80 SW8       30.19F WCI   0
SIREN          CLOUDY    16  11  80 SW9       30.20F WCI   5
CUMBERLAND     FLURRIES  12   9  85 S5        30.20S WCI   4
RICE LAKE      LGT SNOW  11   8  85 S6        30.23F WCI   2
CHETEK         FLURRIES  11   7  85 S6        30.23F WCI   1
LADYSMITH      LGT SNOW  11   7  81 S6        30.24F WCI   2
EAU CLAIRE     CLOUDY    13   7  77 S8        30.26F WCI   2
MENOMONIE      LGT SNOW  13   8  82 SE3       30.26F
NEW RICHMOND   CLOUDY    14  10  84 S12       30.23S WCI   1
OSCEOLA        FLURRIES  15  11  85 S7        30.26S WCI   5
$$

WIZ003>005-009-010-017-018-011200-
NORTH CENTRAL WISCONSIN

CITY           SKY/WX    TMP DP  RH WIND       PRES   REMARKS
MANITOWISH WTR FLURRIES  10   3  75 SW9       30.17F WCI  -3
ARBOR VITAE    FLURRIES  11   4  73 SW7       30.18F WCI   1
WOODRUFF       FLURRIES  11   4  73 SW7       30.18F WCI   1
RHINELANDER    CLOUDY     8   0  69 SW8       30.20F WCI  -4
EAGLE RIVER    CLOUDY     9  -1  65 SW7       30.18F WCI  -3
LAND O LAKES   CLOUDY     8   0  69 SW5       30.18S WCI   0
PHILLIPS       LGT SNOW  10   5  79 S6        30.20S WCI   1
TOMAHAWK       FLURRIES  10   2  71 CALM      30.23S
MEDFORD        CLOUDY     8   3  77 S5        30.23S WCI   0
MERRILL        FLURRIES   9   1  71 CALM      30.25S
$$

WIZ029-030-035-036-043>047-011200-
CENTRAL WISCONSIN

CITY           SKY/WX    TMP DP  RH WIND       PRES   REMARKS
WAUSAU         CLOUDY    10   3  73 SW3       30.26F
MOSINEE        MOCLDY    10   5  79 S6        30.28S WCI   1
MARSHFIELD     MOCLDY     9   3  77 SW8       30.27S WCI  -3
STEVENS POINT  FLURRIES   8   2  76 SW7       30.31R WCI  -3
WAUPACA        FLURRIES  11   4  74 CALM      30.35S
WAUTOMA        PTCLDY     1   0  92 CALM      30.35F
WISC RAPIDS    PTCLDY     9   2  73 S7        30.32F WCI  -2
CAMP DOUGLAS   PTCLDY     9   7  92 SE3       30.32F
$$

WIZ011>013-019>022-031-037>040-048>050-011200-
NORTHEAST WISCONSIN

CITY           SKY/WX    TMP DP  RH WIND       PRES   REMARKS
ANTIGO         CLOUDY     7   0  74 SW6       30.24S WCI  -3
SHAWANO        CLEAR     12   2  64 CALM      30.32F
OCONTO         CLEAR     10   2  70 SW3       30.34F
STURGEON BAY   CLEAR     10   3  72 SW8       30.35F WCI  -1
GREEN BAY      PTCLDY    12   6  77 SW7       30.35F WCI   1
MANITOWOC      FLURRIES  12   9  87 SW3       30.37F
APPLETON       NOT AVBL
CLINTONVILLE   CLEAR      7   0  72 SW6       30.33F WCI  -3
OSHKOSH        PTCLDY    11   7  84 SW3       30.35S
$$

WIZ032>034-041-042-053>061-011200-
SOUTHWEST WISCONSIN

CITY           SKY/WX    TMP DP  RH WIND       PRES   REMARKS
LA CROSSE      PTCLDY    10   5  80 S3        30.34F
SPARTA         PTCLDY     5   2  87 CALM      30.33F
VIROQUA        PTCLDY     8   6  91 S5        30.28F WCI   0
BOSCOBEL       CLOUDY     5   0  79 CALM      30.37F
PRAIRIE DU CHI FLURRIES   8   3  80 CALM      30.36F
PLATTEVILLE    CLOUDY    12  10  91 S7        30.34F VSB 1/2 WCI   2
$$

WIZ056-057-062-063-064-067-068-011200-
SOUTH CENTRAL WISCONSIN

CITY           SKY/WX    TMP DP  RH WIND       PRES   REMARKS
REEDSBURG      FLURRIES  10   8  88 SW6       30.33F WCI   1
BARABOO/DELLS  FLURRIES  10   7  87 SW6       30.33F WCI   0
LONE ROCK      CLOUDY     9   5  84 CALM      30.36F
MINERAL POINT  LGT SNOW  14  12  92 W6        30.31F WCI   5
MADISON        CLOUDY    15  11  83 CALM      30.35F FOG
MIDDLETON      CLOUDY    16  11  83 W3        30.35F
WATERTOWN      LGT SNOW  13  11  93 CALM      30.35F
MONROE         LGT SNOW  16  14  93 SW6       30.33S WCI   7
JANESVILLE     LGT SNOW  14  12  92 CALM      30.36F
$$

WIZ051-052-058>065-066-070>072-011200-
SOUTHEAST WISCONSIN

CITY           SKY/WX    TMP DP  RH WIND       PRES   REMARKS
MILWAUKEE      CLOUDY    14   9  80 CALM      30.37F
WAUKESHA       LGT SNOW  12  10  92 SW3       30.37S
MILWAUKEE/TIMM FLURRIES  12  10  92 W3        30.37F
RACINE         CLOUDY     7   2  80 CALM      30.39F
BURLINGTON     FLURRIES   4   1  87 CALM      30.37S
KENOSHA        CLOUDY    10   6  84 CALM      30.38S FOG
FOND DU LAC    PTCLDY    12   7  80 S6        30.35F WCI   3
SHEBOYGAN      CLOUDY    12   8  84 S6        30.36F WCI   3
WEST BEND      FLURRIES  16  10  79 SW6       30.35F WCI   7
JUNEAU         LGT SNOW  12  10  89 CALM      30.36F
$$

LSZ147-162-011200-
LAKE SUPERIOR

STATION/POSITION TIME  TEMP    WIND        PRES    WAVE
                       AIR SEA DIR/SP/G            HT/PER
                 (UTC) (F)     (DEG/KT/KT) (MB)    (FT/S)
DEVILS ISLAND    1100   16     230/ 16/ 22 1023.4F
PORT WING        1000   15     200/  9/ 12 1022.7
SAXON HARBOR     1040   16     200/ 11/ 16 1022.7S
$$

LMZ867-665-643>646-011200-
LAKE MICHIGAN

STATION/POSITION TIME  TEMP    WIND        PRES    WAVE
                       AIR SEA DIR/SP/G            HT/PER
                 (UTC) (F)     (DEG/KT/KT) (MB)    (FT/S)
NORTHPORT PIER   1004   15     230/  6/ 12 1027.1S
KEWAUNEE LAKESHO 1000   14     250/  6/ 10 1027.3S
SHEBOYGAN LAKESH 1100   16     230/  7/  9 1030.1F
PORT WASHINGTON  1040   15     250/  2/  4 1029.5F
MILWAUKEE LAKESH 1000   17     240/  6/  8   N/A
KENOSHA   LAKESH 1100   15     260/  2/  3 1028.8F
$$

TC  - TEMPERATURE IN CELSIUS
VSB - VISIBILITY IN STATUTE MILES
WCI - WIND CHILL INDEX
HX  - HEAT INDEX



USA.gov is the U.S. government's official web portal to all federal, state and local government web resources and services.